Time,TemperatureF,DewpointF,PressureIn,WindDirection,WindDirectionDegrees,WindSpeedMPH,WindSpeedGustMPH,Humidity,HourlyPrecipIn,Conditions,Clouds,dailyrainin,SoftwareType,DateUTC
2013-01-15 00:01:00,35.0,32.0,30.52,NNW,338,0.0,0.0,90,0.00,,,0.02,,2013-01-15 08:01:00,
2013-01-15 00:11:00,35.0,32.0,30.52,NNW,338,0.0,0.0,90,0.00,,,0.02,,2013-01-15 08:11:00,
2013-01-15 00:22:00,35.0,32.0,30.53,NNW,338,0.0,0.0,90,0.00,,,0.02,,2013-01-15 08:22:00,
2013-01-15 00:32:00,35.0,32.0,30.53,NNW,338,0.0,0.0,90,0.00,,,0.02,,2013-01-15 08:32:00,
2013-01-15 00:42:00,35.0,32.0,30.53,NNW,338,0.0,0.0,90,0.00,,,0.02,,2013-01-15 08:42:00,
2013-01-15 00:52:00,35.0,32.0,30.53,NNW,338,0.0,0.0,90,0.00,,,0.02,,2013-01-15 08:52:00,
2013-01-15 01:02:00,35.0,32.0,30.53,NNW,338,0.0,0.0,90,0.00,,,0.02,,2013-01-15 09:02:00,
2013-01-15 01:11:00,35.0,32.0,30.53,NNW,338,0.0,0.0,90,0.00,,,0.02,,2013-01-15 09:11:00,
2013-01-15 01:22:00,35.0,32.0,30.54,NNW,338,0.0,0.0,90,0.00,,,0.02,,2013-01-15 09:22:00,
2013-01-15 01:33:00,35.0,32.0,30.54,NNW,338,0.0,0.0,90,0.00,,,0.02,,2013-01-15 09:33:00,
2013-01-15 01:42:00,35.0,32.0,30.54,NNW,338,0.0,0.0,90,0.00,,,0.02,,2013-01-15 09:42:00,
2013-01-15 01:52:00,35.0,32.0,30.54,NNW,338,0.0,0.0,90,0.00,,,0.02,,2013-01-15 09:52:00,
2013-01-15 02:01:00,35.0,32.0,30.55,NNW,338,0.0,0.0,90,0.00,,,0.02,,2013-01-15 10:01:00,
2013-01-15 02:11:00,35.0,32.0,30.55,NNW,338,0.0,0.0,90,0.00,,,0.02,,2013-01-15 10:11:00,
2013-01-15 02:22:00,35.0,32.0,30.56,NNW,338,0.0,0.0,90,0.00,,,0.02,,2013-01-15 10:22:00,
2013-01-15 02:32:00,35.0,32.0,30.56,NNW,338,0.0,0.0,90,0.00,,,0.02,,2013-01-15 10:32:00,
2013-01-15 02:42:00,35.0,32.0,30.56,NNW,338,0.0,0.0,90,0.00,,,0.02,,2013-01-15 10:42:00,
2013-01-15 02:52:00,35.0,32.0,30.57,NNW,338,0.0,0.0,90,0.00,,,0.02,,2013-01-15 10:52:00,
2013-01-15 03:01:00,35.0,32.0,30.57,NNW,338,0.0,0.0,90,0.00,,,0.02,,2013-01-15 11:01:00,
2013-01-15 03:11:00,35.0,32.0,30.58,NNW,338,0.0,0.0,90,0.00,,,0.02,,2013-01-15 11:11:00,
2013-01-15 03:22:00,35.0,32.0,30.58,NNW,338,0.0,0.0,90,0.00,,,0.02,,2013-01-15 11:22:00,
2013-01-15 03:32:00,35.0,32.0,30.58,NNW,338,0.0,0.0,90,0.00,,,0.02,,2013-01-15 11:32:00,
2013-01-15 03:42:00,35.0,32.0,30.58,NNW,338,0.0,0.0,90,0.00,,,0.02,,2013-01-15 11:42:00,
2013-01-15 03:52:00,35.0,32.0,30.58,NNW,338,0.0,0.0,90,0.00,,,0.02,,2013-01-15 11:52:00,
2013-01-15 04:02:00,35.0,32.0,30.57,NNW,338,0.0,0.0,90,0.00,,,0.02,,2013-01-15 12:02:00,
2013-01-15 04:11:00,35.0,32.0,30.57,NNW,338,0.0,0.0,90,0.00,,,0.02,,2013-01-15 12:11:00,
2013-01-15 04:22:00,35.0,32.0,30.57,NNW,338,0.0,0.0,90,0.00,,,0.02,,2013-01-15 12:22:00,
2013-01-15 04:32:00,35.0,32.0,30.57,NNW,338,0.0,1.0,90,0.00,,,0.02,,2013-01-15 12:32:00,
2013-01-15 04:42:00,35.0,32.0,30.57,NNW,338,0.0,1.0,90,0.00,,,0.02,,2013-01-15 12:42:00,
2013-01-15 04:53:00,35.0,32.0,30.56,NNW,338,0.0,0.0,90,0.00,,,0.02,,2013-01-15 12:53:00,
2013-01-15 05:02:00,35.0,32.0,30.56,NNW,338,0.0,0.0,90,0.00,,,0.02,,2013-01-15 13:02:00,
2013-01-15 05:12:00,35.0,32.0,30.56,NNW,338,0.0,0.0,90,0.00,,,0.02,,2013-01-15 13:12:00,
2013-01-15 05:22:00,35.0,32.0,30.56,NNW,338,1.0,1.0,90,0.00,,,0.02,,2013-01-15 13:22:00,
2013-01-15 05:32:00,35.0,32.0,30.57,NNW,338,0.0,0.0,90,0.00,,,0.02,,2013-01-15 13:32:00,
2013-01-15 05:42:00,35.0,32.0,30.57,NNW,338,0.0,0.0,90,0.00,,,0.02,,2013-01-15 13:42:00,
2013-01-15 05:53:00,35.0,32.0,30.57,NNW,338,0.0,0.0,90,0.00,,,0.02,,2013-01-15 13:53:00,
2013-01-15 06:01:00,35.0,32.0,30.57,NNW,338,0.0,0.0,90,0.00,,,0.02,,2013-01-15 14:01:00,
2013-01-15 06:11:00,35.0,32.0,30.57,NNW,338,0.0,0.0,90,0.00,,,0.02,,2013-01-15 14:11:00,
2013-01-15 06:22:00,35.0,32.0,30.57,NNW,338,0.0,0.0,90,0.00,,,0.02,,2013-01-15 14:22:00,
2013-01-15 06:32:00,35.0,32.0,30.58,NNW,338,0.0,0.0,90,0.00,,,0.02,,2013-01-15 14:32:00,
2013-01-15 06:42:00,35.0,32.0,30.58,NNW,338,0.0,0.0,90,0.00,,,0.02,,2013-01-15 14:42:00,
2013-01-15 06:53:00,35.0,32.0,30.58,NNW,338,0.0,0.0,90,0.00,,,0.02,,2013-01-15 14:53:00,
2013-01-15 07:02:00,35.0,32.0,30.59,NNW,338,0.0,0.0,90,0.00,,,0.02,,2013-01-15 15:02:00,
2013-01-15 07:12:00,35.0,32.0,30.59,NNW,338,0.0,0.0,90,0.00,,,0.02,,2013-01-15 15:12:00,
2013-01-15 07:22:00,35.0,32.0,30.60,NNW,338,0.0,0.0,90,0.00,,,0.02,,2013-01-15 15:22:00,
2013-01-15 07:32:00,35.0,32.0,30.60,NNW,338,0.0,0.0,90,0.00,,,0.02,,2013-01-15 15:32:00,
2013-01-15 07:42:00,35.0,32.0,30.60,NNW,338,0.0,0.0,90,0.00,,,0.02,,2013-01-15 15:42:00,
2013-01-15 07:53:00,35.0,32.0,30.61,NNW,338,0.0,0.0,90,0.00,,,0.02,,2013-01-15 15:53:00,
2013-01-15 08:02:00,35.0,32.0,30.62,NNW,338,0.0,0.0,90,0.00,,,0.02,,2013-01-15 16:02:00,
2013-01-15 08:11:00,35.0,32.0,30.62,NNW,338,0.0,0.0,90,0.00,,,0.02,,2013-01-15 16:11:00,
2013-01-15 08:22:00,35.0,32.0,30.63,NNW,338,0.0,0.0,90,0.00,,,0.02,,2013-01-15 16:22:00,
2013-01-15 08:32:00,35.0,32.0,30.63,NNW,338,0.0,0.0,90,0.00,,,0.02,,2013-01-15 16:32:00,
2013-01-15 08:42:00,35.0,32.0,30.63,NNW,338,0.0,0.0,90,0.00,,,0.02,,2013-01-15 16:42:00,
2013-01-15 08:53:00,35.0,32.0,30.63,NNW,338,0.0,0.0,90,0.00,,,0.02,,2013-01-15 16:53:00,
2013-01-15 09:02:00,35.0,32.0,30.64,NNW,338,0.0,0.0,90,0.00,,,0.02,,2013-01-15 17:02:00,
2013-01-15 09:12:00,35.0,32.0,30.64,NNW,338,0.0,0.0,90,0.00,,,0.02,,2013-01-15 17:12:00,
2013-01-15 09:22:00,36.0,33.0,30.64,NNW,338,0.0,0.0,90,0.00,,,0.02,,2013-01-15 17:22:00,
2013-01-15 09:32:00,36.0,33.0,30.65,NNW,338,0.0,0.0,90,0.00,,,0.02,,2013-01-15 17:32:00,
2013-01-15 09:42:00,36.0,33.0,30.65,NNW,338,0.0,0.0,90,0.00,,,0.02,,2013-01-15 17:42:00,
2013-01-15 09:53:00,36.0,33.0,30.65,NNW,338,0.0,0.0,90,0.00,,,0.02,,2013-01-15 17:53:00,
2013-01-15 10:02:00,36.0,33.0,30.65,NNW,338,0.0,0.0,90,0.00,,,0.02,,2013-01-15 18:02:00,
2013-01-15 10:12:00,36.0,33.0,30.65,NNW,338,0.0,0.0,90,0.00,,,0.02,,2013-01-15 18:12:00,
2013-01-15 10:22:00,37.0,35.0,30.65,NNW,338,0.0,0.0,91,0.00,,,0.02,,2013-01-15 18:22:00,
2013-01-15 10:33:00,38.0,35.0,30.64,NNW,338,0.0,0.0,90,0.00,,,0.02,,2013-01-15 18:33:00,
2013-01-15 10:42:00,38.0,35.0,30.64,NNW,338,0.0,0.0,90,0.00,,,0.02,,2013-01-15 18:42:00,
2013-01-15 10:53:00,38.0,35.0,30.65,NNW,338,0.0,0.0,90,0.00,,,0.02,,2013-01-15 18:53:00,
2013-01-15 11:02:00,39.0,36.0,30.65,NNW,338,0.0,0.0,90,0.00,,,0.02,,2013-01-15 19:02:00,
2013-01-15 11:12:00,39.0,36.0,30.65,NNW,338,0.0,0.0,90,0.00,,,0.02,,2013-01-15 19:12:00,
2013-01-15 11:22:00,40.0,37.0,30.65,SW,225,2.0,2.0,88,0.00,,,0.02,,2013-01-15 19:22:00,
2013-01-15 11:32:00,40.0,36.0,30.65,SW,225,3.0,3.0,87,0.00,,,0.02,,2013-01-15 19:32:00,
2013-01-15 11:42:00,40.0,36.0,30.65,SW,225,3.0,3.0,87,0.00,,,0.02,,2013-01-15 19:42:00,
2013-01-15 11:53:00,40.0,36.0,30.65,East,90,1.0,1.0,87,0.00,,,0.02,,2013-01-15 19:53:00,
2013-01-15 12:02:00,40.0,36.0,30.64,South,180,1.0,1.0,86,0.00,,,0.02,,2013-01-15 20:02:00,
2013-01-15 12:12:00,40.0,36.0,30.64,South,180,1.0,1.0,86,0.00,,,0.02,,2013-01-15 20:12:00,
2013-01-15 12:22:00,40.0,36.0,30.64,SE,135,0.0,0.0,86,0.00,,,0.02,,2013-01-15 20:22:00,
2013-01-15 12:32:00,42.0,38.0,30.63,SSE,158,0.0,2.0,86,0.00,,,0.02,,2013-01-15 20:32:00,
2013-01-15 12:42:00,42.0,38.0,30.63,SSE,158,0.0,2.0,86,0.00,,,0.02,,2013-01-15 20:42:00,
2013-01-15 12:53:00,44.0,39.0,30.63,South,180,2.0,5.0,83,0.00,,,0.02,,2013-01-15 20:53:00,
2013-01-15 13:02:00,46.0,41.0,30.63,South,180,2.0,2.0,81,0.00,,,0.02,,2013-01-15 21:02:00,
2013-01-15 13:22:00,47.0,41.0,30.62,South,180,2.0,2.0,78,0.00,,,0.02,,2013-01-15 21:22:00,
2013-01-15 13:33:00,47.0,40.0,30.62,South,183,0.0,2.0,76,0.00,,,0.02,,2013-01-15 21:33:00,
2013-01-15 13:53:00,46.0,39.0,30.63,SSW,202,2.0,2.0,77,0.00,,,0.02,,2013-01-15 21:53:00,
2013-01-15 14:02:00,45.0,38.0,30.63,SSW,202,0.0,0.0,77,0.00,,,0.02,,2013-01-15 22:02:00,
2013-01-15 14:11:00,45.0,38.0,30.63,SSW,202,0.0,0.0,77,0.00,,,0.02,,2013-01-15 22:11:00,
2013-01-15 14:22:00,45.0,38.0,30.63,South,180,2.0,3.0,77,0.00,,,0.02,,2013-01-15 22:22:00,
2013-01-15 14:32:00,44.0,37.0,30.63,ENE,68,3.0,3.0,77,0.00,,,0.02,,2013-01-15 22:32:00,
2013-01-15 14:42:00,44.0,37.0,30.63,ENE,68,3.0,3.0,77,0.00,,,0.02,,2013-01-15 22:42:00,
2013-01-15 14:52:00,43.0,37.0,30.64,North,0,1.0,2.0,78,0.00,,,0.02,,2013-01-15 22:52:00,
2013-01-15 15:02:00,43.0,37.0,30.64,NNW,338,1.0,1.0,78,0.00,,,0.00,,2013-01-15 23:02:00,
2013-01-15 15:12:00,43.0,37.0,30.64,NNW,338,1.0,1.0,78,0.00,,,0.00,,2013-01-15 23:12:00,
2013-01-15 15:22:00,42.0,35.0,30.64,South,180,0.0,3.0,76,0.00,,,0.00,,2013-01-15 23:22:00,
2013-01-15 15:32:00,42.0,35.0,30.64,ENE,68,0.0,2.0,77,0.00,,,0.00,,2013-01-15 23:32:00,
2013-01-15 15:42:00,42.0,35.0,30.64,ENE,68,0.0,2.0,77,0.00,,,0.00,,2013-01-15 23:42:00,
2013-01-15 15:53:00,42.0,35.0,30.64,South,180,0.0,0.0,77,0.00,,,0.00,,2013-01-15 23:53:00,
2013-01-15 16:02:00,41.0,35.0,30.64,South,180,0.0,0.0,78,0.00,,,0.00,,2013-01-16 00:02:00,
2013-01-15 16:12:00,41.0,35.0,30.64,South,180,0.0,0.0,78,0.00,,,0.00,,2013-01-16 00:12:00,
2013-01-15 16:22:00,40.0,34.0,30.64,South,180,0.0,0.0,79,0.00,,,0.00,,2013-01-16 00:22:00,
2013-01-15 16:32:00,40.0,34.0,30.63,South,180,2.0,2.0,80,0.00,,,0.00,,2013-01-16 00:32:00,
2013-01-15 16:42:00,40.0,34.0,30.63,South,180,2.0,2.0,80,0.00,,,0.00,,2013-01-16 00:42:00,
2013-01-15 16:52:00,40.0,34.0,30.63,South,180,0.0,0.0,80,0.00,,,0.00,,2013-01-16 00:52:00,
2013-01-15 17:02:00,39.0,34.0,30.63,South,180,0.0,0.0,81,0.00,,,0.00,,2013-01-16 01:02:00,
2013-01-15 17:11:00,39.0,34.0,30.63,South,180,0.0,0.0,81,0.00,,,0.00,,2013-01-16 01:11:00,
2013-01-15 17:22:00,38.0,33.0,30.63,South,180,0.0,0.0,81,0.00,,,0.00,,2013-01-16 01:22:00,
2013-01-15 17:32:00,38.0,33.0,30.63,South,180,0.0,0.0,82,0.00,,,0.00,,2013-01-16 01:32:00,
2013-01-15 17:42:00,38.0,33.0,30.63,South,180,0.0,0.0,82,0.00,,,0.00,,2013-01-16 01:42:00,
2013-01-15 17:53:00,37.0,32.0,30.63,South,180,0.0,0.0,82,0.00,,,0.00,,2013-01-16 01:53:00,
2013-01-15 18:02:00,36.0,31.0,30.64,South,180,0.0,0.0,83,0.00,,,0.00,,2013-01-16 02:02:00,
2013-01-15 18:11:00,36.0,31.0,30.64,South,180,0.0,0.0,83,0.00,,,0.00,,2013-01-16 02:11:00,
2013-01-15 18:22:00,36.0,31.0,30.63,South,180,0.0,0.0,83,0.00,,,0.00,,2013-01-16 02:22:00,
2013-01-15 18:32:00,35.0,31.0,30.63,South,180,0.0,0.0,84,0.00,,,0.00,,2013-01-16 02:32:00,
2013-01-15 18:42:00,35.0,31.0,30.63,South,180,0.0,0.0,84,0.00,,,0.00,,2013-01-16 02:42:00,
2013-01-15 18:53:00,35.0,31.0,30.63,South,180,0.0,0.0,84,0.00,,,0.00,,2013-01-16 02:53:00,
2013-01-15 19:02:00,34.0,30.0,30.63,South,180,0.0,0.0,85,0.00,,,0.00,,2013-01-16 03:02:00,
2013-01-15 19:11:00,34.0,30.0,30.64,South,180,0.0,0.0,85,0.00,,,0.00,,2013-01-16 03:11:00,
2013-01-15 19:22:00,34.0,30.0,30.64,South,180,0.0,0.0,85,0.00,,,0.00,,2013-01-16 03:22:00,
2013-01-15 19:32:00,34.0,30.0,30.64,South,180,0.0,0.0,86,0.00,,,0.00,,2013-01-16 03:32:00,
2013-01-15 19:42:00,34.0,30.0,30.64,South,180,0.0,0.0,86,0.00,,,0.00,,2013-01-16 03:42:00,
2013-01-15 19:52:00,34.0,30.0,30.64,South,180,0.0,0.0,86,0.00,,,0.00,,2013-01-16 03:52:00,
2013-01-15 20:01:00,34.0,30.0,30.65,South,180,0.0,0.0,86,0.00,,,0.00,,2013-01-16 04:01:00,
2013-01-15 20:11:00,34.0,30.0,30.65,South,180,0.0,0.0,86,0.00,,,0.00,,2013-01-16 04:11:00,
2013-01-15 20:22:00,33.0,29.0,30.65,South,180,0.0,0.0,86,0.00,,,0.00,,2013-01-16 04:22:00,
2013-01-15 20:32:00,33.0,30.0,30.65,South,180,0.0,0.0,87,0.00,,,0.00,,2013-01-16 04:32:00,
2013-01-15 20:42:00,33.0,30.0,30.65,South,180,0.0,0.0,87,0.00,,,0.00,,2013-01-16 04:42:00,
2013-01-15 20:52:00,33.0,30.0,30.65,South,180,0.0,0.0,87,0.00,,,0.00,,2013-01-16 04:52:00,
2013-01-15 21:02:00,33.0,30.0,30.65,SSW,202,0.0,0.0,87,0.00,,,0.00,,2013-01-16 05:02:00,
2013-01-15 21:12:00,33.0,30.0,30.65,SSW,202,0.0,0.0,87,0.00,,,0.00,,2013-01-16 05:12:00,
2013-01-15 21:22:00,33.0,30.0,30.65,SSW,202,0.0,0.0,87,0.00,,,0.00,,2013-01-16 05:22:00,
2013-01-15 21:32:00,33.0,30.0,30.65,SSW,202,0.0,0.0,88,0.00,,,0.00,,2013-01-16 05:32:00,
2013-01-15 21:42:00,33.0,30.0,30.65,SSW,202,0.0,0.0,88,0.00,,,0.00,,2013-01-16 05:42:00,
2013-01-15 21:53:00,32.0,29.0,30.64,SSW,202,0.0,0.0,88,0.00,,,0.00,,2013-01-16 05:53:00,
2013-01-15 22:02:00,32.0,29.0,30.64,SSW,202,0.0,0.0,88,0.00,,,0.00,,2013-01-16 06:02:00,
2013-01-15 22:11:00,32.0,29.0,30.64,SSW,202,0.0,0.0,88,0.00,,,0.00,,2013-01-16 06:11:00,
2013-01-15 22:22:00,32.0,29.0,30.63,SSW,202,0.0,0.0,88,0.00,,,0.00,,2013-01-16 06:22:00,
2013-01-15 22:32:00,32.0,29.0,30.63,SSW,202,0.0,0.0,88,0.00,,,0.00,,2013-01-16 06:32:00,
2013-01-15 22:42:00,32.0,29.0,30.63,SSW,202,0.0,0.0,88,0.00,,,0.00,,2013-01-16 06:42:00,
2013-01-15 22:52:00,32.0,29.0,30.64,SSW,202,1.0,2.0,88,0.00,,,0.00,,2013-01-16 06:52:00,
2013-01-15 23:02:00,32.0,29.0,30.64,SSW,202,1.0,2.0,88,0.00,,,0.00,,2013-01-16 07:02:00,
2013-01-15 23:11:00,32.0,29.0,30.64,SSW,202,1.0,2.0,88,0.00,,,0.00,,2013-01-16 07:11:00,
2013-01-15 23:22:00,32.0,29.0,30.64,SSW,202,2.0,0.0,88,0.00,,,0.00,,2013-01-16 07:22:00,
2013-01-15 23:32:00,32.0,29.0,30.64,SSW,202,0.0,0.0,88,0.00,,,0.00,,2013-01-16 07:32:00,
2013-01-15 23:42:00,32.0,29.0,30.64,SSW,202,0.0,0.0,88,0.00,,,0.00,,2013-01-16 07:42:00,
2013-01-15 23:52:00,32.0,29.0,30.64,SSW,202,0.0,0.0,88,0.00,,,0.00,,2013-01-16 07:52:00,